Location: Fort Worth, Tx
(32.7431°N, 97.3695°W)
Time: 14:18:54
(UTC-04:00)

Transit 4A - Visible Passes

Search period start: 12 June 2025 00:00
Search period end: 22 June 2025 00:00
Orbit: 866 x 975 km, 66.8° (Epoch: 11 June)

Date Brightness Start Highest point End Pass type
(mag) Time Alt. Az. Time Alt. Az. Time Alt. Az.
12 Jun 8.1 00:34:19 10° NNW 00:40:07 54° ENE 00:40:08 54° ENE visible
12 Jun 10.0 02:22:07 10° WNW 02:23:36 14° WNW 02:23:36 14° WNW visible
12 Jun 9.9 22:59:42 10° NNE 23:01:45 12° NE 23:03:47 10° ENE visible
13 Jun 7.7 00:43:02 10° NNW 00:48:43 80° NNE 00:48:43 80° NNE visible
13 Jun 9.6 23:07:05 10° N 23:10:57 18° NE 23:13:51 13° E visible
14 Jun 8.0 00:51:55 10° NNW 00:57:20 62° W 00:57:20 62° W visible
14 Jun 9.1 23:15:10 10° N 23:20:03 26° NE 23:22:31 20° E visible
15 Jun 8.6 01:01:00 10° NW 01:05:59 39° W 01:05:59 39° W visible
15 Jun 8.5 23:23:33 10° N 23:29:03 39° ENE 23:31:12 29° ESE visible
16 Jun 9.3 01:10:23 10° NW 01:14:41 25° W 01:14:41 25° W visible
16 Jun 7.9 23:32:08 10° NNW 23:37:57 60° ENE 23:39:57 39° ESE visible
17 Jun 9.8 01:20:22 10° WNW 01:23:26 15° W 01:23:26 15° W visible
17 Jun 7.7 23:40:52 10° NNW 23:46:47 88° WSW 23:48:44 44° SSE visible
18 Jun 9.4 22:04:42 10° N 22:08:52 20° NE 22:12:58 10° E visible
18 Jun 8.1 23:49:48 10° NW 23:55:32 56° WSW 23:57:34 37° SSW visible
19 Jun 8.9 22:12:53 10° N 22:17:57 29° NE 22:22:54 10° ESE visible
19 Jun 8.9 23:58:57 10° NW 00:04:12 35° WSW 00:06:27 26° SSW visible
20 Jun 8.3 22:21:18 10° NNW 22:26:55 43° ENE 22:31:53 12° SE visible
21 Jun 9.6 00:08:27 10° WNW 00:12:49 22° WSW 00:15:23 17° SW visible
21 Jun 7.8 22:29:56 10° NNW 22:35:47 68° ENE 22:40:53 13° SE visible
